| time (UTC) | temp F | wind direction | speed MPH | gust MPH | rain 1hr in | rain 24hr in | rain mn in | humidity % | barometer mb |
| 20260502163919 | 62 | 107 | 4.0 | 7.0 | 0.00 | 0.00 | 0.00 | 82 | 1018.0 |
| 20260502163852 | 62 | 148 | 5.0 | 7.0 | 0.00 | 0.00 | 0.00 | 81 | 1018.3 |
| 20260502161919 | 63 | 119 | 4.0 | 8.0 | 0.00 | 0.00 | 0.00 | 78 | 1018.1 |
| 20260502160920 | 63 | 136 | 3.0 | 9.0 | 0.00 | 0.00 | 0.00 | 80 | 1018.0 |
| 20260502151920 | 63 | 119 | 3.0 | 7.0 | 0.00 | 0.00 | 0.00 | 80 | 1017.9 |
| 20260502150919 | 61 | 147 | 4.0 | 8.0 | 0.00 | 0.00 | 0.00 | 82 | 1018.3 |
| 20260502122920 | 62 | 121 | 1.0 | 8.0 | 0.00 | 0.00 | 0.00 | 82 | 1019.0 |
| 20260502122836 | 62 | 152 | 4.0 | 10.0 | 0.00 | 0.00 | 0.00 | 81 | 1018.9 |
| 20260502120920 | 62 | 129 | 1.0 | 8.0 | 0.00 | 0.00 | 0.00 | 82 | 1018.8 |
| 20260502115919 | 62 | 118 | 1.0 | 7.0 | 0.00 | 0.00 | 0.00 | 82 | 1018.9 |
| 20260502114920 | 61 | 145 | 2.0 | 8.0 | 0.00 | 0.00 | 0.00 | 80 | 1018.9 |
| 20260502113921 | 62 | 235 | 2.0 | 9.0 | 0.00 | 0.00 | 0.00 | 79 | 1019.1 |
| 20260502112920 | 62 | 211 | 2.0 | 7.0 | 0.00 | 0.00 | 0.00 | 80 | 1019.4 |
| 20260502111920 | 62 | 126 | 4.0 | 6.0 | 0.00 | 0.00 | 0.00 | 79 | 1019.1 |
| 20260502110919 | 62 | 149 | 4.0 | 7.0 | 0.00 | 0.00 | 0.00 | 78 | 1019.2 |
| 20260502105920 | 62 | 74 | 2.0 | 7.0 | 0.00 | 0.00 | 0.00 | 78 | 1019.0 |
| 20260502105401 | 63 | 108 | 4.0 | 9.0 | 0.00 | 0.00 | 0.00 | 77 | 1019.1 |
| 20260502103919 | 64 | 153 | 3.0 | 8.0 | 0.00 | 0.00 | 0.00 | 69 | 1019.4 |
| 20260502102920 | 64 | 115 | 2.0 | 8.0 | 0.00 | 0.00 | 0.00 | 69 | 1019.2 |
| 20260502101921 | 64 | 191 | 3.0 | 7.0 | 0.00 | 0.00 | 0.00 | 68 | 1019.2 |
| 20260502101404 | 64 | 191 | 3.0 | 7.0 | 0.00 | 0.00 | 0.00 | 68 | 1019.1 |
| 20260502090920 | 62 | 105 | 1.0 | 6.0 | 0.00 | 0.00 | 0.00 | 66 | 1018.7 |
| 20260502090404 | 62 | 84 | 1.0 | 3.0 | 0.00 | 0.00 | 0.00 | 67 | 1018.6 |
| 20260502070919 | 55 | 334 | 3.0 | 6.0 | 0.00 | 0.00 | 0.00 | 74 | 1018.4 |
| 20260502065918 | 55 | 351 | 4.0 | 7.0 | 0.00 | 0.00 | 0.00 | 72 | 1018.3 |
| 20260502065404 | 55 | 327 | 4.0 | 7.0 | 0.00 | 0.00 | 0.00 | 72 | 1018.3 |
| 20260502063919 | 55 | 346 | 4.0 | 7.0 | 0.00 | 0.00 | 0.00 | 72 | 1018.2 |
| 20260502062921 | 55 | 341 | 3.0 | 7.0 | 0.00 | 0.00 | 0.00 | 73 | 1018.3 |
| 20260502061919 | 55 | 354 | 3.0 | 7.0 | 0.00 | 0.00 | 0.00 | 73 | 1018.0 |
| 20260502061351 | 55 | 346 | 4.0 | 8.0 | 0.00 | 0.00 | 0.00 | 73 | 1017.9 |
| 20260502055921 | 55 | 352 | 4.0 | 7.0 | 0.00 | 0.00 | 0.00 | 73 | 1017.7 |
| 20260502054920 | 55 | 13 | 3.0 | 6.0 | 0.00 | 0.00 | 0.00 | 74 | 1017.7 |
| 20260502053919 | 54 | 343 | 3.0 | 7.0 | 0.00 | 0.00 | 0.00 | 74 | 1017.8 |
| 20260502052920 | 54 | 351 | 4.0 | 6.0 | 0.00 | 0.00 | 0.00 | 74 | 1017.9 |
| 20260502051919 | 55 | 350 | 5.0 | 7.0 | 0.00 | 0.00 | 0.00 | 71 | 1017.9 |
| 20260502050920 | 55 | 349 | 4.0 | 7.0 | 0.00 | 0.00 | 0.00 | 71 | 1018.0 |
| 20260502045920 | 55 | 357 | 4.0 | 7.0 | 0.00 | 0.00 | 0.00 | 73 | 1017.9 |
| 20260502044918 | 55 | 343 | 5.0 | 7.0 | 0.00 | 0.00 | 0.00 | 73 | 1017.7 |
| 20260502043920 | 55 | 336 | 4.0 | 7.0 | 0.00 | 0.00 | 0.00 | 72 | 1017.8 |
| 20260502042919 | 55 | 355 | 3.0 | 7.0 | 0.00 | 0.00 | 0.00 | 73 | 1018.0 |
| 20260502041919 | 55 | 340 | 3.0 | 7.0 | 0.00 | 0.00 | 0.00 | 72 | 1017.8 |
| 20260502040920 | 55 | 332 | 2.0 | 6.0 | 0.00 | 0.00 | 0.00 | 73 | 1017.7 |
| 20260502035920 | 55 | 347 | 4.0 | 7.0 | 0.00 | 0.00 | 0.00 | 74 | 1017.9 |
| 20260502034920 | 55 | 346 | 4.0 | 7.0 | 0.00 | 0.00 | 0.00 | 71 | 1017.9 |
| 20260502033918 | 55 | 354 | 4.0 | 6.0 | 0.00 | 0.00 | 0.00 | 71 | 1018.1 |
| 20260502032920 | 56 | 348 | 5.0 | 7.0 | 0.00 | 0.00 | 0.00 | 71 | 1017.9 |
| 20260502031918 | 56 | 16 | 5.0 | 8.0 | 0.00 | 0.00 | 0.00 | 72 | 1018.0 |
| 20260502030925 | 56 | 7 | 5.0 | 7.0 | 0.00 | 0.00 | 0.00 | 72 | 1018.0 |
| 20260502025920 | 56 | 346 | 4.0 | 7.0 | 0.00 | 0.00 | 0.00 | 72 | 1018.0 |
| 20260502024919 | 56 | 327 | 4.0 | 6.0 | 0.00 | 0.00 | 0.00 | 73 | 1018.2 |
| 20260502023920 | 56 | 327 | 4.0 | 7.0 | 0.00 | 0.00 | 0.00 | 72 | 1018.2 |
| 20260502022920 | 56 | 319 | 4.0 | 6.0 | 0.00 | 0.00 | 0.00 | 74 | 1018.1 |
| 20260502021918 | 56 | 343 | 6.0 | 7.0 | 0.00 | 0.01 | 0.00 | 75 | 1018.2 |
| 20260502021401 | 56 | 339 | 5.0 | 7.0 | 0.00 | 0.01 | 0.00 | 75 | 1018.3 |
| 20260502015919 | 56 | 349 | 5.0 | 7.0 | 0.00 | 0.02 | 0.00 | 74 | 1018.5 |
| 20260502014921 | 56 | 337 | 4.0 | 6.0 | 0.00 | 0.02 | 0.00 | 74 | 1018.6 |
| 20260502013907 | 56 | 351 | 4.0 | 7.0 | 0.00 | 0.02 | 0.00 | 74 | 1018.7 |
| 20260502012842 | 56 | 343 | 4.0 | 7.0 | 0.00 | 0.02 | 0.00 | 74 | 1018.9 |
| 20260502012323 | 56 | 342 | 4.0 | 7.0 | 0.00 | 0.02 | 0.00 | 74 | 1018.7 |
| 20260502010842 | 56 | 338 | 5.0 | 7.0 | 0.00 | 0.02 | 0.00 | 75 | 1019.0 |
| 20260502005841 | 56 | 3 | 4.0 | 7.0 | 0.00 | 0.02 | 0.00 | 75 | 1018.9 |
| 20260502004843 | 56 | 355 | 4.0 | 6.0 | 0.00 | 0.02 | 0.00 | 75 | 1018.8 |
| 20260502003843 | 57 | 354 | 3.0 | 4.0 | 0.00 | 0.02 | 0.00 | 76 | 1018.8 |
| 20260502002843 | 56 | 354 | 2.0 | 4.0 | 0.00 | 0.02 | 0.00 | 77 | 1019.1 |
| 20260502002322 | 55 | 338 | 3.0 | 4.0 | 0.00 | 0.02 | 0.00 | 81 | 1019.5 |
| 20260502001807 | 57 | 349 | 2.0 | 4.0 | 0.00 | 0.02 | 0.00 | 79 | 1019.2 |
| 20260501235842 | 56 | 345 | 3.0 | 6.0 | 0.00 | 0.03 | 0.00 | 77 | 1019.4 |
| 20260501234842 | 56 | 344 | 4.0 | 6.0 | 0.00 | 0.03 | 0.00 | 78 | 1019.4 |
| 20260501233842 | 56 | 338 | 2.0 | 4.0 | 0.00 | 0.03 | 0.00 | 82 | 1019.6 |
| 20260501232843 | 56 | 347 | 3.0 | 4.0 | 0.00 | 0.03 | 0.00 | 83 | 1019.4 |
| 20260501231842 | 56 | 339 | 2.0 | 3.0 | 0.00 | 0.03 | 0.00 | 82 | 1019.4 |
| 20260501230842 | 56 | 334 | 1.0 | 3.0 | 0.00 | 0.03 | 0.00 | 81 | 1019.6 |
| 20260501225843 | 56 | 353 | 2.0 | 3.0 | 0.00 | 0.03 | 0.03 | 84 | 1019.5 |
| 20260501224843 | 56 | 351 | 1.0 | 3.0 | 0.00 | 0.03 | 0.03 | 83 | 1019.8 |
| 20260501223842 | 57 | 336 | 1.0 | 3.0 | 0.00 | 0.03 | 0.03 | 82 | 1019.7 |
| 20260501222843 | 57 | 342 | 1.0 | 3.0 | 0.00 | 0.03 | 0.03 | 81 | 1019.7 |
| 20260501221841 | 56 | 353 | 2.0 | 4.0 | 0.00 | 0.03 | 0.03 | 81 | 1019.8 |
| 20260501221801 | 56 | 346 | 3.0 | 4.0 | 0.00 | 0.03 | 0.03 | 82 | 1019.6 |
| 20260501220806 | 56 | 351 | 2.0 | 3.0 | 0.00 | 0.03 | 0.03 | 83 | 1019.5 |
| 20260501214842 | 56 | 341 | 1.0 | 4.0 | 0.00 | 0.03 | 0.03 | 83 | 1019.7 |
| 20260501213842 | 56 | 344 | 2.0 | 3.0 | 0.00 | 0.03 | 0.03 | 83 | 1019.1 |
| 20260501212843 | 56 | 341 | 1.0 | 3.0 | 0.00 | 0.03 | 0.03 | 83 | 1019.1 |
| 20260501211842 | 56 | 343 | 2.0 | 3.0 | 0.00 | 0.03 | 0.03 | 85 | 1019.0 |
| 20260501210841 | 56 | 3 | 2.0 | 3.0 | 0.00 | 0.03 | 0.03 | 86 | 1018.9 |
| 20260501205842 | 56 | 344 | 2.0 | 4.0 | 0.00 | 0.03 | 0.03 | 86 | 1018.6 |
| 20260501204842 | 56 | 345 | 2.0 | 3.0 | 0.00 | 0.03 | 0.03 | 86 | 1018.7 |
| 20260501203842 | 56 | 348 | 2.0 | 3.0 | 0.00 | 0.03 | 0.03 | 86 | 1018.7 |
| 20260501202843 | 57 | 344 | 2.0 | 3.0 | 0.00 | 0.03 | 0.03 | 86 | 1018.5 |
| 20260501201842 | 56 | 348 | 2.0 | 3.0 | 0.00 | 0.03 | 0.03 | 87 | 1018.5 |
| 20260501200843 | 57 | 342 | 2.0 | 3.0 | 0.00 | 0.03 | 0.03 | 86 | 1018.5 |
| 20260501195841 | 57 | 346 | 2.0 | 4.0 | 0.00 | 0.03 | 0.03 | 86 | 1018.2 |
| 20260501194843 | 58 | 344 | 2.0 | 2.0 | 0.00 | 0.03 | 0.03 | 86 | 1018.2 |
| 20260501193842 | 58 | 248 | 0.0 | 3.0 | 0.00 | 0.04 | 0.03 | 86 | 1018.0 |
| 20260501193319 | 58 | 352 | 2.0 | 3.0 | 0.00 | 0.04 | 0.03 | 86 | 1017.9 |
| 20260501191843 | 58 | 89 | 0.0 | 1.0 | 0.00 | 0.04 | 0.03 | 85 | 1017.7 |
| 20260501190842 | 58 | 217 | 0.0 | 1.0 | 0.00 | 0.04 | 0.03 | 84 | 1017.7 |
| 20260501190825 | 59 | 217 | 0.0 | 2.0 | 0.00 | 0.04 | 0.03 | 84 | 1017.8 |
| 20260501184842 | 59 | 168 | 0.0 | 2.0 | 0.00 | 0.04 | 0.03 | 83 | 1017.8 |
| 20260501183842 | 59 | 150 | 1.0 | 3.0 | 0.00 | 0.04 | 0.03 | 82 | 1017.8 |
| 20260501182841 | 60 | 196 | 2.0 | 4.0 | 0.00 | 0.04 | 0.03 | 81 | 1017.6 |
| 20260501181854 | 60 | 133 | 3.0 | 4.0 | 0.00 | 0.04 | 0.03 | 78 | 1017.6 |
| 20260501181319 | 60 | 135 | 2.0 | 4.0 | 0.00 | 0.04 | 0.03 | 79 | 1017.4 |
| 20260501175842 | 61 | 239 | 4.0 | 4.0 | 0.00 | 0.04 | 0.03 | 78 | 1017.6 |